Regional Weather Roundup
Issued by NWS Pendleton, OR

Home | Current Version | Previous Version | Text Only | Print | Product List | Glossary On
Versions: 1 2 3 4 5 6 7 8 9 10 11 12 13 14 15 16 17 18 19 20 21 22 23 24 25 26 27 28 29 30 31 32 33 34 35 36 37 38 39 40 41 42 43 44 45 46 47 48 49 50
000
ASUS46 KPDT 262325
RWRPDT
PENDLETON REGIONAL WEATHER ROUNDUP
NATIONAL WEATHER SERVICE PENDLETON OREGON
300 PM PST THU FEB 26 2015

NOTE: FAIR INDICATES FEW OR NO CLOUDS BELOW 12,000 FEET WITH NO
SIGNIFICANT WEATHER AND/OR OBSTRUCTIONS TO VISIBILITY.

# INDICATES UNOFFICIAL STATION AND DATA

WAZ520-270010-
EAST SLOPES OF WASHINGTON CASCADES

CITY            SKY/WX      TMP DP  RH  WIND    PRES   REMARKS
#BUMPING DAM    N/A         42  N/A N/A E7      N/A
#CLE ELUM HS    N/A         50  38  63  W6      29.92F
#CLE ELUM LAKE  N/A         48  38  68  W1      29.98F
#CLIFFDEL 2NW   N/A         47  36  65  W3      N/A
#GLENWOOD       N/A         54  42  64  S7      29.98F
#MANASTASH CYN  N/A         43  38  82  CALM    29.94F
#NELSON         N/A         48  40  74  CALM    30.01F
#NELSON 3SW     N/A         43  39  86  CALM    30.21F
#NILE           N/A         50  38  63  CALM    29.25F
#RONALD 2NW     N/A         49  35  58  SW1     29.83F
#TEANAWAY 4NE   N/A         53  41  64  SW3     N/A
#TROUT LAKE 1NE N/A         51  41  68  NW10    30.00F
$$

WAZ521-270010-
SIMCOE HIGHLANDS

CITY            SKY/WX      TMP DP  RH  WIND    PRES   REMARKS
#BICKLETON HS   N/A         43  30  60  E6      N/A
#CENTERVILLE 4W N/A         53  43  69  NW14    29.73F
#CENTERVILLE 1SWN/A         52  41  66  SW16    29.96F
#GOLDENDALE     N/A         53  39  59  W9      N/A
#GOLDENDALE 1NE N/A         54  29  38  S7      N/A
#GOLDENDALE 5WNWN/A         54  42  64  SW13    29.97F
#GOODNOE HILLS  N/A         55  41  59  W20     N/A
#LYLE 6NE       N/A         52  44  74  SW15G24 29.98F
$$

WAZ026-270010-
KITTITAS VALLEY

CITY            SKY/WX      TMP DP  RH  WIND    PRES   REMARKS
ELLENSBURG AP   CLOUDY      57  37  47  SE7     29.97F
#ELLENSBURG CWU N/A         53  38  57  S5      29.93F
#ELLENSBURG 3NE N/A         52  39  61  CALM    29.98F
#ELLENSBURG 1E  N/A         54  35  48  CALM    N/A
#KITTITAS 4N    N/A         48  39  71  E10     28.29F
#KITTITAS 3S    N/A         52  39  61  CALM    29.97F
#THORP 6N       N/A         50  37  61  W13     30.01F
$$

WAZ027-270010-
YAKIMA VALLEY

CITY            SKY/WX      TMP DP  RH  WIND    PRES   REMARKS
SUNNYSIDE AP    CLOUDY      55  36  49  CALM    29.99F
YAKIMA AIRPORT  MOCLDY      58  34  40  VRB6    29.98F
YAKIMA-VAGABOND MOCLDY      56  36  47  N6      29.98F
#DONALD 2NE     N/A         62  24  23  N6      28.82F
#MABTON         N/A         56  41  57  E7      29.99F
#NACHES 2SW     N/A         51  38  61  NE2     30.07S
#OUTLOOK DOT    N/A         N/A N/A N/A E2      N/A
#SELAH 8E       N/A         51  34  52  E5      N/A
#TERRACE HTS    N/A         58  40  51  CALM    29.96F
#TOPPENISH      N/A         56  37  49  E2      29.91F
#WAPATO 4NE     N/A         62  24  23  N6      28.82F
#WEST VALLEY    N/A         55  36  49  NE2     29.97F
#W YAKIMA       N/A         55  36  49  N2      29.99F
#WHITE SWAN 5E  N/A         57  37  47  NE7     30.00F
#WILEY CITY 3W  N/A         52  27  38  CALM    29.98F
$$

WAZ028-270010-
LOWER COLUMBIA BASIN...WASHINGTON

CITY            SKY/WX      TMP DP  RH  WIND    PRES   REMARKS
HANFORD         CLOUDY      55  35  47  E5      30.01F
PASCO           MOCLDY      56  36  47  N3      30.02F
PROSSER AWOS    N/A         55  39  55  E8      30.02F
RICHLAND AWOS   CLOUDY      57  37  47  NE6     30.02F
#BASIN CITY 5SW N/A         54  37  52  E1      30.01F
#BENTON CITY    N/A         54  38  55  E3      29.92F
#CONNELL 5N     N/A         54  35  48  CALM    30.03F
#CONNELL 5NW    N/A         52  35  52  CALM    29.99F
#ELTOPIA        N/A         55  38  53  CALM    29.98F
#ELTOPIA 6NW    N/A         52  34  50  E7      28.98F
#KAHLOTUS       N/A         51  37  59  W7      30.02F
#KENNEWICK 3S   N/A         56  40  55  CALM    30.02F
#PASCO-BROADMOORN/A         58  37  45  NE1     29.91F
#PATERSON       N/A         56  42  59  E1      29.99F
#PROSSER        N/A         55  36  49  SE6     30.00F
#SAGEMOOR 2W    N/A         54  38  55  SW3     29.87F
#TOUCHET 2S     N/A         55  40  57  CALM    30.01F
#WEST PASCO     N/A         59  40  49  N1      29.98F
$$

WAZ029-270010-
FOOTHILLS OF THE BLUES...WASHINGTON

CITY            SKY/WX      TMP DP  RH  WIND    PRES   REMARKS
WALLA WALLA AP  CLOUDY      52  38  59  S5      30.02F
#DAYTON SCHOOL  N/A         50  31  48  S3      30.01F
#LOWDEN 2SE     N/A         55  40  57  W2      29.98F
#PLEASANT VIEW 1N/A         49  38  66  S3      30.07F
#PRESCOTT       N/A         53  41  64  CALM    30.02F
#SUDBURY        N/A         55  N/A N/A CALM    N/A
#WHITMAN COLLEGEN/A         52  39  61  SW2     30.08F
#WAITSBURG 5S   N/A         47  40  76  SW1     30.12F
#WAITSBURG 8N   N/A         49  18  29  S3      29.88S
#WALLA WALLA 5E N/A         51  41  68  S2      N/A
#WALLA WALLA U  N/A         55  40  57  CALM    30.02F
#WHITMAN MISSIONN/A         54  40  59  CALM    30.03F
$$

WAZ030-270010-
BLUE MOUNTAINS...WASHINGTON

CITY            SKY/WX      TMP DP  RH  WIND    PRES   REMARKS
#DIXIE 5SE      N/A         41  34  76  CALM    29.92F
#SKI BLUEWOOD   N/A         35  30  82  N5      29.94F
$$

ORZ009-041-WAZ024-270010-
COLUMBIA RIVER GORGE

CITY            SKY/WX      TMP DP  RH  WIND    PRES   REMARKS
HOOD RIVER AP   MOCLDY      52  45  77  NW10    30.02F
THE DALLES AP   CLOUDY      58  43  57  NW14G24 30.01F
#ARLINGTON AIRPON/A         58  43  57  W14     N/A
#ARLINGTON HS   N/A         60  41  49  W14     29.88F
#CELILO DOT     N/A         57  39  51  SW7     N/A
#MOSIER 1S      N/A         53  35  50  CALM    30.00F
#MURDOCK        N/A         56  47  72  W17     30.02F
#RUFUS DOT      N/A         57  38  49  W16     N/A

$$

ORZ510-270010-
NORTH CENTRAL OREGON

CITY            SKY/WX      TMP DP  RH  WIND    PRES   REMARKS
#CHENOWITH 1W   N/A         50  44  80  NW18    N/A
#COW CYN RST AREN/A         49  37  63  W7      N/A
#DUFUR 9E       N/A         47  41  79  NW7     30.08F
#GRASS VALLEY 1SN/A         50  39  66  NW7     30.03F
#KENT DOT       N/A         46  37  71  SW5     N/A
#MAUPIN SCHOOL  N/A         58  41  53  CALM    30.00F
#MORO SCHOOL    N/A         52  45  77  NW7     30.00F
#SHANIKO 5WSW   N/A         47  33  58  SW6     N/A
#SHANIKO 4NW    N/A         46  37  71  W7      29.99F
#TYGH VALLEY 2NEN/A         59  42  53  CALM    29.99F
#WAPANITIA AIRPON/A         55  41  59  W12     30.01F
#WASCO DOT      N/A         56  38  51  W14     N/A
#WASCO 5NE      N/A         55  43  64  N7      30.00F
$$

ORZ511-270010-
CENTRAL OREGON

CITY            SKY/WX      TMP DP  RH  WIND    PRES   REMARKS
BEND AIRPORT    N/A         N/A N/A N/A MISG    N/A
MADRAS AIRPORT  CLOUDY      54  36  50  W5      30.02F
PRINEVILLE AP   MOCLDY      48  34  58  W10     29.99F
REDMOND AIRPORT MOCLDY      50  32  50  NW14    30.00F
#BEND 6E        N/A         49  29  46  CALM    30.00F
#BEND 1SW       N/A         48  34  58  N1      N/A
#BEND-AWBREY    N/A         50  33  52  CALM    30.03F
#BEND-KIM LN    N/A         50  33  52  N1      29.97F
#CROOKED RVR RANN/A         50  37  61  NW3     30.01F
#CULVER         N/A         51  36  56  N2      29.96F
#LAKE BILLY CHINN/A         51  16  24  W5      30.08F
#POWELL BUTTE 3EN/A         51  35  54  NW8     N/A
#POWELL BUTTE   N/A         49  35  58  N6      29.63F
#PRINEVILLE 3N  N/A         52  36  54  NW1     30.00F
#WARM SPRINGS   N/A         59  38  45  NE1     29.96F

$$


ORZ509-270010-
EAST SLOPES OF OREGON CASCADES

CITY            SKY/WX      TMP DP  RH  WIND    PRES   REMARKS
#BLUE BOX PASS  N/A         39  -11 11  W3      N/A
#CAMP SHERMAN   N/A         48  36  63  SW1     30.06F
#LA PINE DOT    N/A         47  24  40  W13     N/A    WCI 41
#LA PINE 4NW    N/A         45  32  60  NW1     30.10F
#LAVA BUTTE DOT N/A         46  28  49  S1      N/A
#MT BACHELOR-MIDN/A         28  26  92  SW12    N/A    WCI 18
#SISTERS AIRPOR N/A         49  41  74  N2      30.17S
#SISTERS ODOT   N/A         49  N/A N/A SW6     N/A
#SISTERS 3N     N/A         48  32  54  N2      30.01F
#SUNRIVER       N/A         48  32  54  SW3     29.94F
#TUMALO 3W      N/A         49  32  52  W1      29.89F
#WANOGA BUTTE D N/A         40  23  50  NW8     N/A

$$

ORZ044-270010-
LOWER COLUMBIA BASIN...OREGON

CITY            SKY/WX      TMP DP  RH  WIND    PRES   REMARKS
HERMISTON       CLOUDY      57  38  49  CALM    30.00F
#BOARDMAN 8SW   N/A         57  41  55  CALM    29.98F
#IONE SCHOOL    N/A         55  39  55  W6      29.98F
#IRRIGON 4NW    N/A         57  42  57  E3      N/A
#UMATILLA SCHOOLN/A         54  42  64  NE7     30.03F
#UMATILLA       N/A         56  38  51  NE7     29.98F
$$

ORZ507-270010-
NORTHERN FOOTHILLS OF THE BLUES

CITY            SKY/WX      TMP DP  RH  WIND    PRES   REMARKS
PENDLETON AIRPT CLOUDY      51  38  61  E3      30.00F
#ADAMS 3WNW     N/A         50  41  71  CALM    30.03F
#ATHENA         N/A         48  40  74  SW1     30.05F
#CAYUSE         N/A         50  40  68  CALM    30.02F
#HELIX SCHOOL   N/A         49  39  68  CALM    30.02F
#HELIX 3N       N/A         47  38  71  CALM    29.97F
#HELIX 6SW      N/A         51  40  66  CALM    30.00F
#HOLDMAN 6E     N/A         51  38  61  CALM    29.84F
#M-F FERNDALE   N/A         55  38  53  CALM    30.01F
#M-F GROVE ELEM N/A         49  39  68  E6      30.00F
#M-FREEWATER 5SEN/A         46  41  83  NE7     30.01F
#PENDLETON DNTN N/A         55  38  53  NE2     30.02S
#PDT AQUATIC CTRN/A         54  40  59  E3      30.01S
#PENDLETON 5NE  N/A         51  42  71  S1      29.97F
#PDT SUNRIDGE   N/A         52  40  63  CALM    30.01F
#PENDLETON 7NW  N/A         55  40  57  CALM    26.25F
#PILOT ROCK     N/A         49  37  63  CALM    30.02F
#TUTUILLA       N/A         52  40  63  E1      30.02F
#UMAPINE 2E     N/A         54  40  59  W1      29.99F
#WESTON SCHOOL  N/A         47  35  63  CALM    30.00F

$$

ORZ508-270010-
SOUTHERN FOOTHILLS OF THE BLUES

CITY            SKY/WX      TMP DP  RH  WIND    PRES   REMARKS
LEXINGTON       MOCLDY      55  37  51  NW8     30.00F
#AJAX           N/A         51  33  50  SW2     29.93F
#CONDON SCHOOL  N/A         47  39  74  CALM    29.95F
#CONDON 5W      N/A         46  36  68  SW6     29.96F
#FOSSIL SCHOOL  N/A         49  37  63  CALM    29.97F
#HEPPNER EOC    N/A         50  37  61  W7      29.97F
#HEPPNER 4NE    N/A         47  37  68  W7      30.02F
#LEXINGTON 2SE  N/A         55  39  55  N5      29.96F
#MIKKALO        N/A         54  37  52  NW9     29.98F
#OLEX 4N        N/A         57  43  59  W3      29.98F
#RUGGS 5NE      N/A         47  35  63  W6      30.14F
#RUGGS 2SW      N/A         49  37  63  W6      30.04F

$$

ORZ502-503-270010-
BLUE MOUNTAINS

CITY            SKY/WX      TMP DP  RH  WIND    PRES   REMARKS
MEACHAM         LGT RAIN    39  36  89  CALM    29.98F
#BATTLE MTN DOT N/A         37  36  96  CALM    N/A
#HARDMAN 10S    N/A         42  35  76  CALM    30.16F
#HEPPNER 15SE   N/A         37  34  89  CALM    29.90F
#LADD CYN SMT   N/A         39  33  79  NW6     N/A
#LADD CREEK ODOTN/A         40  34  79  CALM    N/A
#LONG CREEK HS  N/A         39  38  96  CALM    29.95F
#N POWDER DOT   N/A         42  36  79  NE8     N/A
#PIKES PEAK     N/A         37  36  96  S7      27.99S
#TOLLGATE       N/A         31  30  96  S1      29.92F
#TROY SCHOOL    N/A         46  38  73  CALM    29.90F
#UKIAH          N/A         46  39  76  CALM    30.05F
#WESTON 4E      N/A         40  37  89  SW3     30.00F
$$

ORZ505-270010-
JOHN DAY BASIN

CITY            SKY/WX      TMP DP  RH  WIND    PRES   REMARKS
JOHN DAY        MOCLDY      41  37  86  N3      30.00F
#JOHN DAY KJDY  N/A         48  40  74  CALM    30.08R
#MONUMENT HS    N/A         48  38  68  S5      30.01F
#MT. VERNON 5SE N/A         40  35  82  CALM    29.95F
#SPRAY SCHOOL   N/A         57  N/A N/A CALM    N/A
#WINLOCK        N/A         49  38  66  S6      30.07F
$$

ORZ506-270010-
OCHOCO AND JOHN DAY HIGHLANDS

CITY            SKY/WX      TMP DP  RH  WIND    PRES   REMARKS
#BUCK CREEK DOT N/A         47  47  100 W12     N/A    WCI 42
#HORSE RIDGE DO N/A         46  29  51  N9      N/A
#KEYES SMT DOT  N/A         44  36  73  CALM    N/A
#PAULINA SCHOOL N/A         44  38  79  E1      29.98F
#PINE MTN OBS   N/A         35  29  78  N1      N/A
#PRAIRIE CITY   N/A         39  33  79  NW1     30.10R
#SENECA         N/A         37  N/A N/A NW5     N/A
#SENECA 9NW     N/A         39  35  85  CALM    30.01F
$$

ORZ049-270010-
GRANDE RONDE VALLEY

CITY            SKY/WX      TMP DP  RH  WIND    PRES   REMARKS
LA GRANDE       MOCLDY      45  32  60  W6      29.99F
#COVE           N/A         43  37  79  CALM    30.01F
#COVE SCHOOL    N/A         43  36  76  CALM    29.98F
#COVE 6NW       N/A         43  35  73  CALM    30.09F
#ELGIN 3N       N/A         43  35  73  NE1     29.98F
#ELGIN 1E       N/A         44  36  73  CALM    N/A
#IMBLER SCHOOL  N/A         43  34  70  CALM    29.96F
#ISLAND CITY 4N N/A         50  49  96  CALM    30.04F
#LADD CYN DOT   N/A         42  36  79  CALM    N/A
#UNION 1S       N/A         43  37  79  CALM    29.96F
$$

ORZ050-270010-
WALLOWA COUNTY

CITY            SKY/WX      TMP DP  RH  WIND    PRES   REMARKS
JOSEPH AIRPORT  LGT SNOW    36  32  85  CALM    29.99F
#ENTERPRISE HS  N/A         39  34  82  W1      30.00F
#IMNAHA SCHOOL  N/A         46  37  71  N7      30.01F
#IMNAHA 10S     N/A         47  28  47  S1      30.24S
#JOSEPH 3N      N/A         37  34  89  S1      30.01F
#JOSEPH 3W      N/A         35  29  78  CALM    29.82F
#LOSTINE        N/A         37  33  85  CALM    29.85F
#MT HOWARD 8000 N/A         23  21  92  CALM    29.87F
#PROMISE 1S     N/A         35  33  92  W2      30.17F
#SHEEP RDG 7000 N/A         25  24  96  CALM    30.12F
#WALLOWA SCHOOL N/A         40  35  82  CALM    30.99F



$$



USA.gov is the U.S. government's official web portal to all federal, state and local government web resources and services.